COSMOS 1275 DEB

Satellite information

Favourite Embed

Satellite Type and Status

DEBRISIN ORBIT

Key statistics

Satellite COSMOS 1275 DEB at a glance.

Uptime

16104

Days in orbit

Revolutions

≈ 14.2

Per day

Orbit

LEO

Low Earth Orbit

Inclination

82.8

Latest

Satellite identification and parameters

Extended collection of information and parameters for COSMOS 1275 DEB.

Object identification

Identified? True

Debris? True

Object name: COSMOS 1275 DEB

International designator: 1981-053MF

Object number (NORAD): 19047

Object ID (CCSDS): 19047

Country: COMMONWEALTH OF INDEPENDENT STATES (CIS)

Current information (Y/N): Y

RCS size: SMALL

Orbital parameters

Period: 101.363 minutes

Inclination: 82.7821 deg

SMA: 7201.353 km

Apoapsis: 842.025 km

Periapsis: 804.411 km

RAAN: 202.2342 deg

Eccentricy: 0.0026116

Argument of periapsis: 219.6802 deg

Mean anomaly: 196.0245 deg

Mean motion: 14.20631991 rev/day

Mean motion (dot): 0.00001723 rev/day2

B* drag term: 0.00079062 1/REarth

Two-line elements (TLE)

Creation date: July 6, 2025, 6:05 p.m.

Reference frame: TEME

Reference center: EARTH

Epoch: July 6, 2025, 1:51 a.m. UTC

TLE line 0: 0 COSMOS 1275 DEB

TLE line 1: 1 19047U 81053MF 25187.07756049 .00001723 00000-0 79062-3 0 9999

TLE line 2: 2 19047 82.7821 202.2342 0026116 219.6802 196.0245 14.20631991 55261

Live tracking on map

Real-time ground track for satellite COSMOS 1275 DEB.

In-orbit conjunctions

A list of the most updated potential collisions computed for object COSMOS 1275 DEB.

Target Orbit TCA Probability of collision Miss distance Type
FENGYUN 1C DEB SSO 2025-05-18 15:02:08 0.0001807599 155.0 (m) DEBRIS
COSMOS 1275 DEB LEO 2024-09-05 18:01:06 0.0001256909 29.0 (m) DEBRIS
FENGYUN 1C DEB SSO 2024-09-01 12:32:45 0.0001041698 112.0 (m) DEBRIS

Associated space launch

Navigation satellite providing location information for the Tsiklon-B navigation system

COSMOS 1275 DEB was lifted into orbit during the mission ‘Kosmos-3M | Parus 27’, on board a Kosmos-3M space rocket.

The launch took place on June 4, 1981, 3:41 p.m. from 132/2.

For more information about the launch, click the button.

Launch to space Kosmos-3M | Parus 27
Kosmos-3M | Parus 27

Agency: N/A

Status: Launch Successful

Launch date: June 4, 1981, 3:41 p.m. UTC

Rocket: Kosmos-3M

Launch pad: 132/2

Location: Plesetsk Cosmodrome, Russian Federation

...

Latest news about this satellite

There are no fresh news available about this satellite. Check back as we update our databases every day.


Newsletter sign-up

Weekly statistics, charts and insights to help you stay on top of the space industry.